[[{"header":{"parameterUnit":"m.s-1","parameterCategory":1,"la1":30.2991,"la2":30.254,"lo1":-89.0895,"lo2":-89.0444,"dy":0.0017,"dx":0.0017,"nx":28,"ny":28,"refTime":"2024-03-18T03:00:00:Z","depth":0,"parameterNumber":2,"parameterNumberName":"U-component_of_WINDS"},"data":[0,0,0,0,0,0,0,0,0,0,0,0,0,0,0,0,0,0,0,0,0,0,0,0,0,0,0,0,0,0,0,0,0,0,0,0,0,0,0,0,0,0,0,0,0,0,0,0,0,0,0,0,0,0,0,0,0,0,-0.6116,-0.6116,0,-0.6152,-0.6152,-0.6152,-0.615,-0.6149,-0.6149,-0.6148,-0.6185,-0.6186,-0.6187,0,0,0,0,0,0,0,0,0,0,0,0,0,-0.6045,-0.6046,-0.6116,-0.6116,-0.6117,-0.6152,-0.6152,-0.6152,-0.615,-0.6149,-0.6149,-0.6148,-0.6184,-0.6186,-0.6188,0,0,0,0,0,0,0,0,0,0,0,0,0,-0.6078,-0.6047,-0.6116,-0.612,-0.612,-0.6151,-0.6152,-0.6153,-0.615,-0.6149,-0.6148,-0.6148,-0.6183,-0.6186,-0.6188,-0.6217,0,0,-0.6194,-0.6195,0,0,0,0,0,0,0,0,-0.6076,-0.608,-0.6119,-0.612,-0.612,-0.6145,-0.614,-0.6174,-0.615,-0.6139,-0.6148,-0.6147,-0.6172,-0.6175,-0.6184,-0.6219,-0.622,-0.6195,-0.6196,-0.6197,-0.6198,0,0,0,0,0,0,0,-0.6074,-0.6079,-0.613,-0.6119,-0.612,-0.6119,-0.6123,-0.6147,-0.6159,-0.614,-0.614,-0.6144,-0.6172,-0.6182,-0.6184,-0.6221,-0.6195,-0.6197,-0.6198,-0.6199,-0.6281,-0.6282,0,0,0,0,0,0,-0.607,-0.6077,-0.6129,-0.6131,-0.6096,-0.6121,-0.6126,-0.6138,-0.6159,-0.6162,-0.6144,-0.6144,-0.6178,-0.6182,-0.6186,-0.6221,-0.6197,-0.6199,-0.62,-0.6281,-0.6282,-0.6283,0,0,0,0,0,0,-0.6069,-0.6075,-0.6127,-0.6104,-0.6111,-0.6123,-0.6138,-0.6139,-0.6148,-0.6163,-0.6165,-0.6152,-0.6178,-0.6183,-0.6209,-0.6223,-0.62,-0.6202,-0.628,-0.6281,-0.6282,-0.6293,0,0,0,0,0,0,-0.6067,-0.6075,-0.6086,-0.6104,-0.6112,-0.6151,-0.6138,-0.6141,-0.6152,-0.6151,-0.617,-0.6172,-0.6177,-0.6206,-0.6211,-0.6225,-0.6204,-0.6278,-0.628,-0.6282,-0.6292,-0.6295,-0.6297,0,0,0,0,0,-0.6064,-0.6088,-0.6087,-0.6093,-0.6127,-0.6152,-0.6156,-0.6161,-0.6153,-0.6165,-0.6174,-0.6172,-0.622,-0.6209,-0.6215,-0.623,-0.6278,-0.628,-0.6282,-0.629,-0.6294,-0.6297,0,0,0,0,0,0,-0.6072,-0.6091,-0.6089,-0.612,-0.6134,-0.6151,-0.6166,-0.6165,-0.6182,-0.6181,-0.6186,-0.6191,-0.6217,-0.6226,-0.6213,-0.6259,-0.6248,-0.6251,-0.6252,-0.6256,-0.6259,-0.6256,-0.6205,0,0,0,0,0,-0.6077,-0.6095,-0.6111,-0.6136,-0.6143,-0.6153,-0.6164,-0.6167,-0.6182,-0.6188,-0.6199,-0.6214,-0.6232,-0.6245,-0.6262,-0.6293,-0.6296,-0.6305,-0.6308,-0.631,-0.6313,-0.633,-0.6334,-0.6289,-0.6289,-0.6289,0,0,-0.6087,-0.61,-0.6112,-0.6138,-0.6149,-0.6168,-0.6159,-0.6179,-0.6193,-0.6192,-0.6217,-0.6226,-0.6242,-0.6271,-0.6284,-0.6279,-0.6326,-0.6313,-0.6315,-0.6317,-0.6332,-0.6336,-0.634,-0.6291,-0.629,-0.629,0,0,-0.6117,-0.6128,-0.615,-0.6162,-0.6179,-0.6185,-0.6191,-0.6208,-0.6213,-0.6239,-0.6238,-0.6255,-0.6286,-0.6298,-0.6308,-0.6341,-0.6339,-0.6346,-0.6361,-0.6377,-0.638,-0.6383,-0.6395,-0.6399,-0.6349,-0.6349,-0.6349,0,-0.6128,-0.6157,-0.6162,-0.6183,-0.6194,-0.6193,-0.6215,-0.6226,-0.6248,-0.6256,-0.6249,-0.6289,-0.63,-0.6331,-0.6339,-0.6347,-0.6353,-0.6345,-0.6379,-0.6383,-0.6386,-0.6397,-0.6401,-0.635,-0.635,-0.635,-0.635,0,-0.617,-0.619,-0.6205,-0.6227,-0.624,-0.6261,-0.6269,-0.6281,-0.6283,-0.6289,-0.6315,-0.6328,-0.6349,-0.6356,-0.6358,-0.6387,-0.6383,-0.6378,-0.6367,-0.6391,-0.6401,-0.6405,-0.6351,-0.6351,-0.635,-0.635,0,0,-0.6206,-0.6229,-0.6235,-0.6244,-0.6262,-0.6278,-0.6299,-0.6318,-0.6329,-0.6344,-0.6361,-0.6387,-0.6383,-0.6394,-0.6397,-0.641,-0.6435,-0.6404,-0.6404,-0.6409,-0.6468,-0.6472,-0.6477,-0.6434,-0.6435,-0.6435,-0.6466,0,-0.6237,-0.6275,-0.6279,-0.6312,-0.6331,-0.6329,-0.6347,-0.636,-0.6367,-0.6383,-0.639,-0.6409,-0.6401,-0.6408,-0.6421,-0.6429,-0.6447,-0.6427,-0.645,-0.6451,-0.6446,-0.6482,-0.6487,-0.6515,-0.647,-0.6471,-0.6472,0,-0.628,-0.6295,-0.633,-0.6346,-0.6353,-0.637,-0.6388,-0.6403,-0.6417,-0.6421,-0.6433,-0.6434,-0.6455,-0.6443,-0.6472,-0.6458,-0.6467,-0.6473,-0.6474,-0.6477,-0.6463,-0.6486,-0.6525,-0.6529,-0.6478,-0.6478,-0.6477,0,-0.6302,-0.6333,-0.6357,-0.6365,-0.6384,-0.6395,-0.6403,-0.6417,-0.6428,-0.6443,-0.6451,-0.6468,-0.6478,-0.6491,-0.6496,-0.6487,-0.6525,-0.6513,-0.6528,-0.6528,-0.6537,-0.6537,-0.6578,-0.6542,-0.6542,-0.6542,-0.6542,0,-0.6337,-0.6359,-0.6368,-0.6383,-0.6407,-0.6411,-0.6434,-0.6442,-0.6454,-0.647,-0.6469,-0.6485,-0.649,-0.6506,-0.651,-0.6533,-0.6538,-0.6541,-0.6542,-0.6542,-0.6541,-0.6548,-0.6547,-0.6543,-0.6543,-0.6543,-0.6543,0,-0.6368,-0.6374,-0.6401,-0.6416,-0.642,-0.6437,-0.645,-0.6464,-0.647,-0.649,-0.6495,-0.6505,-0.6523,-0.653,-0.6552,-0.6555,-0.6582,-0.6581,-0.6577,-0.6577,-0.6592,-0.6591,-0.664,-0.6647,-0.6607,-0.6607,-0.6607,0,-0.639,-0.6406,-0.6423,-0.6434,-0.6442,-0.646,-0.6471,-0.6475,-0.6487,-0.6504,-0.6516,-0.6535,-0.655,-0.658,-0.6588,-0.6605,-0.6605,-0.6621,-0.6607,-0.6606,-0.6605,-0.6604,-0.6606,-0.6624,-0.6624,-0.6624,-0.6625,0,-0.6429,-0.6431,-0.6447,-0.6465,-0.6478,-0.6492,-0.6505,-0.6514,-0.652,-0.6533,-0.6552,-0.6564,-0.6587,-0.6605,-0.6622,-0.663,-0.6628,-0.6629,-0.6633,-0.6633,-0.663,-0.6632,-0.6584,-0.6628,-0.6627,-0.6627,-0.6627,-0.6627,-0.6456,-0.647,-0.6484,-0.6502,-0.6512,-0.6524,-0.6538,-0.6546,-0.6562,-0.6581,-0.6582,-0.6602,-0.6615,-0.6638,-0.6647,-0.6662,-0.6658,-0.6664,-0.6666,-0.6668,-0.6669,-0.6627,-0.6666,-0.6665,-0.6665,-0.6665,-0.6665,0,-0.6494,-0.6503,-0.6519,-0.6538,-0.6552,-0.6548,-0.6563,-0.6575,-0.6593,-0.6605,-0.6619,-0.6641,-0.6658,-0.6668,-0.6685,-0.6695,-0.6695,-0.67,-0.6699,-0.6701,-0.6672,-0.6666,-0.67,-0.67,-0.67,-0.67,-0.67,-0.67,-0.6516,-0.654,-0.6544,-0.6573,-0.6581,-0.6601,-0.6609,-0.662,-0.663,-0.6654,-0.6668,-0.6674,-0.6685,-0.6703,-0.6718,-0.672,-0.6727,-0.6732,-0.6734,-0.6707,-0.6703,-0.67,-0.6695,-0.6733,-0.6733,-0.6762,-0.6762,-0.6762]},{"header":{"parameterUnit":"m.s-1","parameterCategory":1,"la1":30.2991,"la2":30.254,"lo1":-89.0895,"lo2":-89.0444,"dy":0.0017,"dx":0.0017,"nx":28,"ny":28,"refTime":"2024-03-18T03:00:00:Z","depth":0,"parameterNumber":3,"parameterNumberName":"V-component_of_WINDS"},"data":[0,0,0,0,0,0,0,0,0,0,0,0,0,0,0,0,0,0,0,0,0,0,0,0,0,0,0,0,0,0,0,0,0,0,0,0,0,0,0,0,0,0,0,0,0,0,0,0,0,0,0,0,0,0,0,0,0,0,-4.551,-4.5511,0,-4.5576,-4.5576,-4.5577,-4.5533,-4.5531,-4.5529,-4.5527,-4.559,-4.5593,-4.5597,0,0,0,0,0,0,0,0,0,0,0,0,0,-4.5342,-4.5345,-4.551,-4.5511,-4.5512,-4.5575,-4.5576,-4.5577,-4.5534,-4.5531,-4.5529,-4.5526,-4.5589,-4.5593,-4.5597,0,0,0,0,0,0,0,0,0,0,0,0,0,-4.5412,-4.5347,-4.551,-4.5498,-4.5497,-4.5575,-4.5576,-4.5577,-4.5534,-4.5531,-4.5528,-4.5525,-4.5587,-4.5592,-4.5598,-4.569,0,0,-4.5614,-4.5616,0,0,0,0,0,0,0,0,-4.5408,-4.5418,-4.5499,-4.5499,-4.5498,-4.5543,-4.554,-4.5615,-4.5535,-4.552,-4.5527,-4.5524,-4.5576,-4.5582,-4.5601,-4.5693,-4.5695,-4.5614,-4.5617,-4.562,-4.5621,0,0,0,0,0,0,0,-4.5403,-4.5415,-4.5536,-4.55,-4.55,-4.5487,-4.5494,-4.5554,-4.5564,-4.5521,-4.5518,-4.5527,-4.5576,-4.5596,-4.5602,-4.5696,-4.5614,-4.5619,-4.5622,-4.5624,-4.5867,-4.587,0,0,0,0,0,0,-4.54,-4.5411,-4.5534,-4.5538,-4.5445,-4.5493,-4.55,-4.5532,-4.5563,-4.5565,-4.5529,-4.5524,-4.5589,-4.5596,-4.5604,-4.5715,-4.562,-4.5624,-4.5627,-4.5863,-4.5867,-4.5871,0,0,0,0,0,0,-4.5397,-4.5412,-4.5531,-4.5474,-4.5488,-4.5499,-4.5535,-4.5535,-4.5555,-4.5569,-4.557,-4.5549,-4.5586,-4.5597,-4.5669,-4.5716,-4.5627,-4.5632,-4.586,-4.5865,-4.5869,-4.5936,0,0,0,0,0,0,-4.5392,-4.5411,-4.5447,-4.5475,-4.5491,-4.5597,-4.5538,-4.5538,-4.5565,-4.5559,-4.5588,-4.559,-4.5585,-4.5662,-4.5674,-4.5722,-4.5636,-4.5855,-4.5862,-4.5868,-4.593,-4.5943,-4.5954,0,0,0,0,0,-4.5386,-4.5462,-4.5449,-4.5464,-4.5537,-4.5599,-4.5609,-4.5603,-4.5569,-4.5605,-4.5614,-4.5589,-4.5709,-4.5669,-4.5683,-4.5733,-4.5852,-4.586,-4.5867,-4.5925,-4.594,-4.5954,0,0,0,0,0,0,-4.5437,-4.5466,-4.5451,-4.5539,-4.5567,-4.5592,-4.5637,-4.562,-4.5657,-4.565,-4.564,-4.5647,-4.5723,-4.5735,-4.569,-4.5824,-4.5775,-4.5786,-4.5814,-4.5829,-4.5841,-4.5836,-4.564,0,0,0,0,0,-4.5459,-4.5509,-4.553,-4.5605,-4.562,-4.5627,-4.5653,-4.5647,-4.5675,-4.5686,-4.5701,-4.5728,-4.5772,-4.5801,-4.5842,-4.5931,-4.5936,-4.5972,-4.5984,-4.5994,-4.6003,-4.6052,-4.6068,-4.5895,-4.5895,-4.5895,0,0,-4.5504,-4.5525,-4.5557,-4.5616,-4.5637,-4.5688,-4.5637,-4.5692,-4.5729,-4.5694,-4.5764,-4.5776,-4.5805,-4.5887,-4.5923,-4.5899,-4.6052,-4.6003,-4.6011,-4.6015,-4.6061,-4.6077,-4.6092,-4.59,-4.5899,-4.5899,0,0,-4.5612,-4.5633,-4.5699,-4.5721,-4.5755,-4.5758,-4.5774,-4.5802,-4.5809,-4.5879,-4.5854,-4.5896,-4.5972,-4.5995,-4.6016,-4.6132,-4.611,-4.6146,-4.6209,-4.6256,-4.6269,-4.6281,-4.6323,-4.6338,-4.6155,-4.6155,-4.6155,0,-4.5663,-4.574,-4.5734,-4.5792,-4.5818,-4.579,-4.5855,-4.5877,-4.5922,-4.594,-4.5912,-4.6007,-4.6025,-4.6111,-4.614,-4.6158,-4.6175,-4.6143,-4.6268,-4.628,-4.6291,-4.6331,-4.6347,-4.6159,-4.6159,-4.6158,-4.6158,0,-4.5801,-4.5855,-4.5903,-4.5949,-4.598,-4.6042,-4.6043,-4.6076,-4.6066,-4.6072,-4.6144,-4.6164,-4.6209,-4.6229,-4.6219,-4.6314,-4.6298,-4.627,-4.622,-4.6312,-4.6349,-4.6364,-4.6165,-4.6163,-4.6162,-4.6161,0,0,-4.5943,-4.5986,-4.6004,-4.6024,-4.6059,-4.61,-4.6159,-4.6205,-4.6233,-4.6264,-4.6313,-4.6378,-4.6352,-4.6376,-4.6369,-4.641,-4.6501,-4.6376,-4.6377,-4.6399,-4.6607,-4.6629,-4.6647,-4.6487,-4.649,-4.6492,-4.6605,0,-4.6054,-4.616,-4.6156,-4.6254,-4.6303,-4.6278,-4.6329,-4.6355,-4.6362,-4.6404,-4.641,-4.6457,-4.6419,-4.6434,-4.6473,-4.6482,-4.6543,-4.6473,-4.6532,-4.6534,-4.6526,-4.6666,-4.6689,-4.6795,-4.6619,-4.6622,-4.6623,0,-4.6197,-4.6235,-4.6339,-4.6368,-4.6388,-4.6435,-4.6476,-4.6517,-4.6545,-4.6547,-4.6575,-4.6561,-4.6619,-4.6568,-4.6648,-4.6601,-4.6624,-4.6632,-4.6636,-4.6642,-4.6585,-4.6676,-4.6829,-4.6845,-4.6646,-4.6644,-4.6643,0,-4.6291,-4.6368,-4.6441,-4.6459,-4.6494,-4.6527,-4.6543,-4.6569,-4.6596,-4.6632,-4.665,-4.6691,-4.6714,-4.6745,-4.6742,-4.6705,-4.6824,-4.6772,-4.6827,-4.6827,-4.6853,-4.6852,-4.7012,-4.6867,-4.6867,-4.6867,-4.6866,0,-4.6415,-4.648,-4.6484,-4.6529,-4.66,-4.6594,-4.6664,-4.6676,-4.6699,-4.6744,-4.6723,-4.6766,-4.6759,-4.6801,-4.6798,-4.6865,-4.6875,-4.6878,-4.6877,-4.6881,-4.688,-4.6896,-4.6889,-4.6871,-4.687,-4.6869,-4.6868,0,-4.6533,-4.6538,-4.6616,-4.6642,-4.6651,-4.6702,-4.6724,-4.6765,-4.6771,-4.6828,-4.6841,-4.6849,-4.6898,-4.6898,-4.6952,-4.6951,-4.7033,-4.7023,-4.7024,-4.7022,-4.7077,-4.7072,-4.7254,-4.7277,-4.7117,-4.7118,-4.7119,0,-4.6612,-4.6662,-4.6695,-4.6725,-4.6743,-4.6791,-4.6819,-4.6815,-4.6845,-4.6882,-4.6919,-4.6966,-4.7003,-4.7082,-4.7091,-4.7133,-4.7124,-4.7185,-4.713,-4.7132,-4.7126,-4.7123,-4.7128,-4.7196,-4.7197,-4.7199,-4.72,0,-4.6753,-4.6753,-4.6797,-4.6841,-4.6877,-4.6911,-4.6942,-4.6968,-4.6966,-4.7001,-4.7052,-4.7081,-4.7138,-4.7185,-4.7225,-4.7239,-4.7219,-4.7217,-4.7232,-4.7237,-4.7236,-4.7238,-4.7054,-4.7213,-4.7212,-4.7211,-4.721,-4.721,-4.6854,-4.6897,-4.6928,-4.6976,-4.7,-4.703,-4.7071,-4.7082,-4.7125,-4.7172,-4.7166,-4.7222,-4.7249,-4.7301,-4.7319,-4.7362,-4.734,-4.7362,-4.7367,-4.7373,-4.7379,-4.7229,-4.7369,-4.7368,-4.7368,-4.7368,-4.7367,0,-4.6994,-4.7013,-4.7058,-4.7104,-4.7142,-4.7122,-4.7156,-4.7189,-4.7239,-4.7266,-4.7304,-4.7362,-4.7407,-4.7421,-4.7464,-4.7495,-4.7488,-4.7507,-4.7505,-4.7509,-4.7395,-4.7379,-4.7513,-4.7513,-4.7513,-4.7513,-4.7513,-4.7513,-4.7072,-4.7144,-4.7148,-4.7231,-4.7248,-4.7305,-4.7326,-4.7353,-4.7375,-4.7441,-4.7479,-4.7488,-4.751,-4.7555,-4.7595,-4.7597,-4.7614,-4.7638,-4.7637,-4.7531,-4.7516,-4.7502,-4.7487,-4.7641,-4.7641,-4.7746,-4.7747,-4.7748]}]]